Location: Lalanga
(4.5882°N, 32.9072°E)
Time: 04:56:16
(UTC+00:00)

Intelsat 5-3 Rocket - Pass Details

Date: 24 January 2020
Orbit: 285 x 6153 km, 23.5° (Epoch: 18 February)

Event Time Altitude Azimuth Distance (km) Brightness Sun altitude
Rises 16:56:20 0° 239° (WSW) 7,263 9.7 -14.7°
Reaches altitude 10° 17:02:56 10° 236° (SW) 5,141 8.4 -16.3°
Maximum altitude 17:14:41 52° 163° (SSE) 1,328 4.2 -19.0°
Enters shadow 17:17:10 30° 103° (ESE) 1,452 4.0 -19.6°
